Regional Weather Roundup
Issued by NWS Boston, MA

Current Version | Previous Version | Text Only | Print | Product List | Glossary Off
Versions: 1 2 3 4 5 6 7 8 9 10 11 12 13 14 15 16 17 18 19 20 21 22 23 24 25 26 27 28
000 ASUS41 KBOX 191310 RWRBOX REGIONAL WEATHER ROUNDUP NATIONAL WEATHER SERVICE BOSTON/NORTON MA 900 AM EDT THU APR 19 2018 NOTE: "FAIR" INDICATES FEW OR NO CLOUDS BELOW 12,000 FEET WITH NO SIGNIFICANT WEATHER AND/OR OBSTRUCTIONS TO VISIBILITY. MAZALL-191400- EASTERN MASSACHUSETTS CITY SKY/WX TMP DP RH WIND PRES REMARKS BOSTON LGTSLEET 37 33 85 NW6 29.73 FOG BEVERLY LGT SNOW 35 33 92 W3 29.73F FOG LAWRENCE LGT SNOW 36 33 89 SW5 29.75R FOG BEDFORD LGT SNOW 33 32 96 CALM 29.73S FOG BLUE HILL N/A 34 34 100 NW6 29.69F WCI 29 NORWOOD LGT RAIN 39 36 89 N3 29.72F FOG MARSHFIELD LGT RAIN 37 37 100 CALM 29.72F PLYMOUTH LGT RAIN 39 37 92 N5 29.72F FOG TAUNTON RAIN 39 38 96 CALM 29.70F FOG NEW BEDFORD LGT RAIN 39 38 96 NE3 29.70F FOG $$ MAZALL-191400- CAPE COD AND THE ISLANDS CITY SKY/WX TMP DP RH WIND PRES REMARKS FALMOUTH DRIZZLE 41 39 93 NE6 29.71 HYANNIS CLOUDY 42 40 92 NE5 29.70F CHATHAM CLOUDY 43 40 89 NE3 29.73F PROVINCETOWN LGT RAIN 39 37 92 CALM 29.74F FOG NANTUCKET LGT RAIN 43 43 100 NE10 29.70F MARTHAS VNYRD CLOUDY 43 40 89 E7 29.70F $$ MAZALL-191400- CENTRAL AND WESTERN MASSACHUSETTS CITY SKY/WX TMP DP RH WIND PRES REMARKS WORCESTER LGT SNOW 32 31 96 W5 29.71R VSB 3/4 WCI 27 FITCHBURG LGT RAIN 38 35 89 CALM 29.73S ORANGE MIX PCPN 33 33 100 CALM 29.73 FOG SPRINGFIELD LGT SNOW 33 33 99 CALM 29.71 VSB 1 WESTFIELD LGT SNOW 33 32 96 W5 29.74S FOG WCI 29 NORTH ADAMS CLOUDY 34 32 92 CALM 29.70F PITTSFIELD LGT SNOW 33 30 88 CALM 29.68S FOG $$ RIZALL-191400- RHODE ISLAND CITY SKY/WX TMP DP RH WIND PRES REMARKS PROVIDENCE LGT RAIN 40 39 97 N6 29.71F NEWPORT LGT RAIN 40 39 97 NE5 29.69F FOG BLOCK ISLAND LGT RAIN 41 39 93 NE7 29.69F SMITHFIELD MIX PCPN 37 36 93 MISG 29.72R FOG WESTERLY LGT RAIN 41 40 96 NE5 29.70F FOG $$ CTZALL-191400- CONNECTICUT CITY SKY/WX TMP DP RH WIND PRES REMARKS BRADLEY INTL LGTSLEET 35 34 96 NE8 29.70F WCI 29 HARTFORD CLOUDY 39 36 89 N12 29.70F WCI 32 BRIDGEPORT LGT RAIN 41 38 89 N13 29.68F DANBURY CLOUDY 38 35 89 N8 29.70S GROTON LGT RAIN 40 39 97 N7 29.69F FOG NEW HAVEN CLOUDY 41 38 89 N12 29.68F CHESTER LGT RAIN 39 37 93 NE7 29.67S MERIDEN CLOUDY 39 36 89 N8 29.70F WILLIMANTIC LGT RAIN 38 36 92 N6 29.72F FOG OXFORD DRIZZLE 36 35 96 N9 29.69F WCI 29 $$ MEZ002-015-021-024-NHZ003-005-008-011-012-014-VTZ005-008-191400- NORTHERN NEW ENGLAND CITY SKY/WX TMP DP RH WIND PRES REMARKS PORTLAND ME PTSUNNY 42 30 62 SW5 29.70S BANGOR ME PTSUNNY 45 31 58 VRB3 29.67R CONCORD NH CLOUDY 37 33 85 S6 29.71S MANCHESTER NH LGT SNOW 35 32 88 CALM 29.72R VSB 3/4 NASHUA NH LGT SNOW 34 34 100 CALM 29.74R FOG PORTSMOUTH NH LGT SNOW 36 32 87 W7 29.72 VSB 1 WCI 30 JAFFREY NH FLURRIES 34 33 96 CALM 29.69F KEENE NH LGT RAIN 35 33 92 S6 29.72S WCI 30 BURLINGTON VT PTSUNNY 38 32 79 N10 29.71S WCI 31 MT. WASHINGTON FOG 16 16 100 W21 N/A VSB 0 WCI -2 $$ NYZ052-076-191400- EASTERN NEW YORK CITY SKY/WX TMP DP RH WIND PRES REMARKS ALBANY DRIZZLE 37 31 78 CALM 29.72F NEW YORK CITY CLOUDY 46 38 73 N15 29.69R $$ ANZALL-191400- MARINE OBSERVATIONS STATION/POSITION TIME TEMP WIND PRES VSBY WAVE AIR SEA DIR/SP/G HT/PER (UTC) (F) (DEG/KT/KT) (MB) (MI) (FT/S) BOSTON BUOY 1250 38 42 270/ 6/ 6 1006.1F 2/10 BUZZARDS BAY 1200 42 20/ 9/ 10 1007.1F NANTUCKET SOUND 1150 42 42 360/ 6/ 6 1007.1 1 MASS BAY-STELLWA 1204 38 41 1006.2R 2/11 ISLE OF SHOALS 1300 37 260/ 9/ 10 1006.4R S OF BLOCK IS 1243 41 N/A 3/ 8 $$ ......................KEY......................... SKY/WX - SKY CONDITION/PRESENT WEATHER TMP - TEMPERATURE IN FAHRENHEIT DWPT - DEWPOINT IN FAHRENHEIT RH - RELATIVE HUMIDITY IN PERCENT WIND - DIRECTION AND SPEED IN MPH PRES - MEAN SEA LEVEL PRESSURE IN INCHES OF HG WCI - WIND CHILL INDEX VSB - VISIBILITY IN MILES HX - HEAT INDEX TC - TEMPERATURE IN CELSIUS VRB - VARIABLE WIND DIRECTION N/A - NOT AVAILABLE

USA.gov is the U.S. government's official web portal to all federal, state and local government web resources and services.